User: anonymous   Login
Location: Unspecified
(0.0000°N, 0.0000°E)
Time: 00:24:05
(UTC+00:00)
Language:

CARTOSAT 2B - Orbit

View from above orbital plane
View from above orbital plane
View from above satellite
View from above satellite

Ground track
Ground track

The orbit data is extracted from the following two-line orbital elements,

1 36795U 10035A   19197.78559003 -.00000007  00000-0  62211-5 0  9998
2 36795  97.9682 256.5715 0015778  91.5962 268.7050 14.78647687486435
Epoch (UTC): 16 July 2019 18:51:14
Eccentricity: 0.0015778
inclination: 97.9682°
perigee height: 622 km
apogee height: 644 km
right ascension of ascending node: 256.5715°
argument of perigee: 91.5962°
revolutions per day: 14.78647687
mean anomaly at epoch: 268.7050°
orbit number at epoch: 48643

The dashed part of the orbit path shows where the satellite is in the earth's shadow,  

DLR